FDX812 KDCA-KMEM

Flight info

Callsign FDX812
Flight time N/A
Altitude 30000
Route CLTCH3 MAULS Q40 JAARE GQO TALLO VANZE3
Aircraft B738/M-SDE2E3FGHIRWXY/LB1

Departure

Time 2026-05-05 23:57
Airport Ronald Reagan Washington National Airport (KDCA)

Arrival

Time N/A
Airport Memphis International Airport (KMEM)
Time Latitude Longitude Altitude Speed Heading
2026-05-05 23:40 38.85960 -77.04422 24 ft 0 kts 232°
2026-05-05 23:51 38.85978 -77.04390 29 ft 8 kts 246°
2026-05-05 23:51 38.85979 -77.04346 29 ft 0 kts 311°
2026-05-05 23:53 38.85979 -77.04347 24 ft 0 kts 311°
2026-05-05 23:53 38.86008 -77.04377 23 ft 10 kts 321°
2026-05-05 23:53 38.86083 -77.04349 22 ft 17 kts 75°
2026-05-05 23:54 38.86012 -77.04223 24 ft 20 kts 143°
2026-05-05 23:54 38.85895 -77.04114 23 ft 18 kts 143°
2026-05-05 23:54 38.85812 -77.04018 24 ft 14 kts 113°
2026-05-05 23:54 38.85817 -77.03988 26 ft 1 kts 24°
2026-05-05 23:55 38.85837 -77.03988 26 ft 6 kts 360°
2026-05-05 23:55 38.85910 -77.03988 23 ft 14 kts
2026-05-05 23:55 38.86007 -77.03955 21 ft 0 kts 15°
2026-05-05 23:55 38.86010 -77.03954 21 ft 5 kts 15°
2026-05-05 23:56 38.86078 -77.03904 19 ft 11 kts 71°
2026-05-05 23:56 38.86063 -77.03859 20 ft 4 kts 166°
2026-05-05 23:56 38.85889 -77.03850 23 ft 57 kts 177°
2026-05-05 23:56 38.85267 -77.03792 18 ft 121 kts 174°
2026-05-05 23:57 38.84256 -77.03687 107 ft 164 kts 179°
2026-05-05 23:57 38.83073 -77.03577 724 ft 174 kts 179°
2026-05-05 23:57 38.81821 -77.03544 1398 ft 180 kts 182°
2026-05-05 23:57 38.80606 -77.03539 2248 ft 182 kts 185°
2026-05-05 23:58 38.79271 -77.03533 2409 ft 200 kts 184°
2026-05-05 23:58 38.77833 -77.03520 2599 ft 212 kts 185°
2026-05-05 23:58 38.76414 -77.03982 2911 ft 214 kts 211°
2026-05-05 23:58 38.75311 -77.05266 3233 ft 224 kts 234°
2026-05-05 23:59 38.74742 -77.07184 3477 ft 240 kts 256°
2026-05-05 23:59 38.74572 -77.09350 4069 ft 246 kts 261°
2026-05-05 23:59 38.74467 -77.11529 4753 ft 246 kts 262°
2026-05-05 23:59 38.74194 -77.13664 5368 ft 241 kts 244°
2026-05-06 00:00 38.73476 -77.15578 6065 ft 237 kts 241°
2026-05-06 00:00 38.72995 -77.16852 6370 ft 243 kts 241°
2026-05-06 00:00 38.72257 -77.18831 6869 ft 248 kts 242°
2026-05-06 00:00 38.71513 -77.20834 7468 ft 250 kts 243°
2026-05-06 00:01 38.70772 -77.22865 8005 ft 254 kts 245°
2026-05-06 00:01 38.70089 -77.24949 8641 ft 254 kts 246°
2026-05-06 00:01 38.69420 -77.27068 9140 ft 261 kts 247°
2026-05-06 00:01 38.68740 -77.29233 9715 ft 262 kts 248°
2026-05-06 00:02 38.68058 -77.31401 10246 ft 265 kts 248°
2026-05-06 00:02 38.67343 -77.33664 10377 ft 284 kts 248°
2026-05-06 00:02 38.66581 -77.36066 10564 ft 300 kts 248°
2026-05-06 00:02 38.65773 -77.38609 10680 ft 317 kts 248°
2026-05-06 00:03 38.64933 -77.41246 11179 ft 318 kts 248°
2026-05-06 00:03 38.64093 -77.43880 11693 ft 321 kts 248°
2026-05-06 00:03 38.63249 -77.46523 12267 ft 322 kts 248°
2026-05-06 00:03 38.62399 -77.49182 12821 ft 323 kts 248°
2026-05-06 00:04 38.61548 -77.51840 13392 ft 324 kts 248°
2026-05-06 00:04 38.60692 -77.54511 13931 ft 325 kts 248°
2026-05-06 00:04 38.59834 -77.57183 14458 ft 325 kts 248°
2026-05-06 00:04 38.58977 -77.59854 14972 ft 325 kts 248°
2026-05-06 00:05 38.57259 -77.65195 16052 ft 324 kts 248°
2026-05-06 00:05 38.56402 -77.67856 16605 ft 323 kts 247°
2026-05-06 00:05 38.55549 -77.70506 17163 ft 322 kts 247°
2026-05-06 00:06 38.54697 -77.73147 17733 ft 321 kts 247°
2026-05-06 00:06 38.53850 -77.75769 18296 ft 319 kts 247°
2026-05-06 00:06 38.53013 -77.78338 18795 ft 316 kts 245°
2026-05-06 00:06 38.51859 -77.80708 19257 ft 315 kts 230°
2026-05-06 00:07 38.50392 -77.82747 19841 ft 310 kts 228°
2026-05-06 00:07 38.48927 -77.84750 20347 ft 307 kts 229°
2026-05-06 00:07 38.47491 -77.86740 20880 ft 303 kts 229°
2026-05-06 00:07 38.46053 -77.88751 20979 ft 315 kts 229°
2026-05-06 00:08 38.44613 -77.90921 21030 ft 325 kts 238°
2026-05-06 00:08 38.43500 -77.93482 21062 ft 336 kts 243°
2026-05-06 00:08 38.42445 -77.96209 21039 ft 349 kts 244°
2026-05-06 00:08 38.41399 -77.98968 21615 ft 343 kts 244°
2026-05-06 00:09 38.40358 -78.01708 22066 ft 342 kts 244°
2026-05-06 00:09 38.39320 -78.04419 22608 ft 339 kts 244°
2026-05-06 00:09 38.38286 -78.07100 23119 ft 336 kts 244°
2026-05-06 00:09 38.37255 -78.09755 23632 ft 332 kts 244°
2026-05-06 00:10 38.36235 -78.12375 24071 ft 328 kts 245°
2026-05-06 00:10 38.35225 -78.14957 24526 ft 324 kts 245°
2026-05-06 00:10 38.34227 -78.17505 24969 ft 319 kts 245°
2026-05-06 00:10 38.33241 -78.20017 25316 ft 318 kts 245°
2026-05-06 00:11 38.32237 -78.22579 25293 ft 329 kts 245°
2026-05-06 00:11 38.31202 -78.25214 25403 ft 336 kts 245°
2026-05-06 00:11 38.30144 -78.27906 25442 ft 344 kts 245°
2026-05-06 00:11 38.29060 -78.30660 25525 ft 351 kts 245°
2026-05-06 00:12 38.27970 -78.33421 26017 ft 343 kts 246°
2026-05-06 00:12 38.26911 -78.36098 26641 ft 335 kts 246°
2026-05-06 00:12 38.25880 -78.38700 27249 ft 324 kts 246°
2026-05-06 00:12 38.24882 -78.41218 27850 ft 314 kts 247°
2026-05-06 00:13 38.23916 -78.43654 28396 ft 305 kts 247°
2026-05-06 00:13 38.21954 -78.48625 28250 ft 325 kts 247°
2026-05-06 00:14 38.19888 -78.53846 28376 ft 336 kts 247°
2026-05-06 00:14 38.17751 -78.59222 28636 ft 342 kts 247°
2026-05-06 00:14 38.16706 -78.61839 29225 ft 332 kts 247°
2026-05-06 00:15 38.15672 -78.64426 29706 ft 325 kts 248°
2026-05-06 00:15 38.14638 -78.67016 29900 ft 327 kts 248°
2026-05-06 00:15 38.13603 -78.69617 29871 ft 333 kts 248°
2026-05-06 00:15 38.12555 -78.72247 30008 ft 334 kts 248°
2026-05-06 00:16 38.11496 -78.74901 29991 ft 340 kts 248°
2026-05-06 00:16 38.09335 -78.80306 30012 ft 347 kts 248°
2026-05-06 00:17 38.07135 -78.85796 30024 ft 355 kts 248°
2026-05-06 00:17 38.04865 -78.91449 30017 ft 364 kts 247°
2026-05-06 00:18 38.02540 -78.97227 30025 ft 372 kts 247°
2026-05-06 00:18 38.00161 -79.03129 30022 ft 379 kts 247°
2026-05-06 00:19 37.97732 -79.09143 30018 ft 387 kts 247°
2026-05-06 00:19 37.95247 -79.15283 30035 ft 395 kts 247°
2026-05-06 00:20 37.92715 -79.21529 30056 ft 402 kts 247°
2026-05-06 00:20 37.90136 -79.27878 30086 ft 408 kts 247°
2026-05-06 00:21 37.87455 -79.34285 30072 ft 417 kts 243°
2026-05-06 00:21 37.84316 -79.40525 30087 ft 424 kts 242°
2026-05-06 00:22 37.81094 -79.46812 30097 ft 428 kts 242°
2026-05-06 00:22 37.77844 -79.53176 30113 ft 433 kts 242°
2026-05-06 00:23 37.74570 -79.59606 30093 ft 437 kts 242°
2026-05-06 00:23 37.71268 -79.66093 30066 ft 440 kts 242°
2026-05-06 00:24 37.67942 -79.72611 30066 ft 442 kts 242°
2026-05-06 00:24 37.64606 -79.79135 30057 ft 442 kts 242°
2026-05-06 00:25 37.61269 -79.85653 30034 ft 442 kts 242°
2026-05-06 00:25 37.57928 -79.92162 30036 ft 442 kts 242°
2026-05-06 00:26 37.54590 -79.98649 30037 ft 441 kts 242°
2026-05-06 00:26 37.51276 -80.05082 30037 ft 440 kts 242°
2026-05-06 00:27 37.47943 -80.11539 30042 ft 439 kts 242°
2026-05-06 00:27 37.44610 -80.17984 30039 ft 439 kts 242°
2026-05-06 00:28 37.41275 -80.24422 30036 ft 439 kts 242°
2026-05-06 00:28 37.37938 -80.30847 30083 ft 439 kts 242°
2026-05-06 00:29 37.34596 -80.37274 30101 ft 439 kts 242°
2026-05-06 00:29 37.31250 -80.43696 30115 ft 439 kts 242°
2026-05-06 00:30 37.27904 -80.50105 30119 ft 439 kts 242°
2026-05-06 00:30 37.24668 -80.56586 30101 ft 437 kts 244°
2026-05-06 00:31 37.21568 -80.63131 30072 ft 436 kts 245°
2026-05-06 00:31 37.18467 -80.69653 30072 ft 435 kts 244°
2026-05-06 00:32 37.15349 -80.76142 30076 ft 434 kts 244°
2026-05-06 00:32 37.12224 -80.82611 30086 ft 433 kts 244°
2026-05-06 00:33 37.09097 -80.89071 30071 ft 434 kts 244°
2026-05-06 00:33 37.05961 -80.95538 30058 ft 435 kts 244°
2026-05-06 00:34 37.02815 -81.02013 30043 ft 435 kts 244°
2026-05-06 00:34 36.99667 -81.08481 30065 ft 436 kts 244°
2026-05-06 00:35 36.96507 -81.14958 30086 ft 436 kts 244°
2026-05-06 00:35 36.93346 -81.21426 30116 ft 436 kts 244°
2026-05-06 00:36 36.90180 -81.27893 30116 ft 436 kts 244°
2026-05-06 00:36 36.87011 -81.34355 30127 ft 436 kts 244°
2026-05-06 00:37 36.83835 -81.40818 30123 ft 437 kts 244°
2026-05-06 00:37 36.80651 -81.47277 30097 ft 437 kts 244°
2026-05-06 00:38 36.77468 -81.53728 30071 ft 437 kts 244°
2026-05-06 00:38 36.74280 -81.60181 30066 ft 437 kts 244°
2026-05-06 00:39 36.71062 -81.66602 30027 ft 437 kts 243°
2026-05-06 00:39 36.67781 -81.72977 30050 ft 437 kts 243°
2026-05-06 00:40 36.64496 -81.79344 30057 ft 437 kts 243°
2026-05-06 00:40 36.61215 -81.85711 30058 ft 437 kts 243°
2026-05-06 00:41 36.57934 -81.92076 30060 ft 437 kts 243°
2026-05-06 00:41 36.54644 -81.98447 30050 ft 438 kts 243°
2026-05-06 00:42 36.51379 -82.04758 30043 ft 437 kts 243°
2026-05-06 00:42 36.48092 -82.11099 30048 ft 435 kts 244°
2026-05-06 00:43 36.44812 -82.17416 30037 ft 435 kts 244°
2026-05-06 00:43 36.41532 -82.23722 30038 ft 434 kts 244°
2026-05-06 00:44 36.38256 -82.30006 30044 ft 433 kts 243°
2026-05-06 00:44 36.34985 -82.36271 30032 ft 432 kts 244°
2026-05-06 00:45 36.31713 -82.42526 30021 ft 432 kts 244°
2026-05-06 00:45 36.28444 -82.48764 30042 ft 431 kts 244°
2026-05-06 00:46 36.25177 -82.54988 30019 ft 431 kts 244°
2026-05-06 00:46 36.21908 -82.61204 30024 ft 430 kts 244°
2026-05-06 00:47 36.19194 -82.66355 30026 ft 430 kts 244°
2026-05-06 00:47 36.15923 -82.72554 30016 ft 430 kts 244°
2026-05-06 00:48 36.12653 -82.78739 30020 ft 429 kts 244°
2026-05-06 00:48 36.09383 -82.84913 30021 ft 429 kts 244°
2026-05-06 00:49 36.06112 -82.91079 30029 ft 428 kts 244°
2026-05-06 00:49 36.02844 -82.97228 30019 ft 428 kts 244°
2026-05-06 00:50 35.99570 -83.03377 30018 ft 428 kts 244°
2026-05-06 00:50 35.96297 -83.09516 30022 ft 428 kts 244°
2026-05-06 00:51 35.93023 -83.15645 30032 ft 427 kts 244°
2026-05-06 00:51 35.89809 -83.21801 30013 ft 425 kts 245°
2026-05-06 00:52 35.86766 -83.28040 30002 ft 424 kts 246°
2026-05-06 00:52 35.83728 -83.34267 30008 ft 424 kts 245°
2026-05-06 00:53 35.80670 -83.40468 30032 ft 424 kts 245°
2026-05-06 00:53 35.77598 -83.46671 30025 ft 425 kts 245°
2026-05-06 00:54 35.74513 -83.52887 30024 ft 426 kts 245°
2026-05-06 00:54 35.71484 -83.59131 30023 ft 425 kts 246°
2026-05-06 00:55 35.68526 -83.65437 30012 ft 426 kts 246°
2026-05-06 00:55 35.65592 -83.71677 29986 ft 425 kts 245°
2026-05-06 00:56 35.62630 -83.77941 30035 ft 424 kts 245°
2026-05-06 00:56 35.59652 -83.84219 30024 ft 426 kts 245°
2026-05-06 00:57 35.56659 -83.90508 30032 ft 427 kts 245°
2026-05-06 00:57 35.53658 -83.96805 30034 ft 428 kts 245°
2026-05-06 00:58 35.50647 -84.03109 30024 ft 428 kts 245°
2026-05-06 00:58 35.47635 -84.09403 30025 ft 428 kts 245°
2026-05-06 00:59 35.44614 -84.15705 30028 ft 428 kts 245°
2026-05-06 00:59 35.41594 -84.21997 30022 ft 428 kts 245°
2026-05-06 01:00 35.38567 -84.28290 30012 ft 429 kts 245°
2026-05-06 01:00 35.35534 -84.34583 30017 ft 429 kts 244°
2026-05-06 01:01 35.32494 -84.40878 30024 ft 429 kts 244°
2026-05-06 01:01 35.29467 -84.47143 30023 ft 431 kts 244°
2026-05-06 01:02 35.26405 -84.53461 30035 ft 432 kts 244°
2026-05-06 01:02 35.23330 -84.59795 30030 ft 433 kts 244°
2026-05-06 01:03 35.20245 -84.66134 30022 ft 434 kts 244°
2026-05-06 01:03 35.17153 -84.72481 30008 ft 435 kts 244°
2026-05-06 01:04 35.14051 -84.78835 30011 ft 435 kts 244°
2026-05-06 01:04 35.10945 -84.85187 30022 ft 436 kts 244°
2026-05-06 01:05 35.07826 -84.91556 30014 ft 437 kts 244°
2026-05-06 01:05 35.04704 -84.97917 30031 ft 438 kts 244°
2026-05-06 01:06 35.01570 -85.04293 30021 ft 438 kts 245°
2026-05-06 01:06 34.98433 -85.10665 30035 ft 437 kts 245°
2026-05-06 01:07 34.96118 -85.17396 30041 ft 427 kts 259°
2026-05-06 01:07 34.95165 -85.24458 30037 ft 421 kts 267°
2026-05-06 01:08 34.94495 -85.31552 30016 ft 422 kts 267°
2026-05-06 01:08 34.93808 -85.38598 30014 ft 421 kts 266°
2026-05-06 01:09 34.93095 -85.45730 30030 ft 421 kts 266°
2026-05-06 01:09 34.92385 -85.52751 30031 ft 419 kts 266°
2026-05-06 01:10 34.91668 -85.59794 30042 ft 418 kts 266°
2026-05-06 01:10 34.90950 -85.66811 30018 ft 417 kts 266°
2026-05-06 01:11 34.90230 -85.73810 30029 ft 416 kts 266°
2026-05-06 01:11 34.89508 -85.80784 30027 ft 414 kts 266°
2026-05-06 01:12 34.88783 -85.87738 30010 ft 414 kts 266°
2026-05-06 01:12 34.88056 -85.94690 30022 ft 413 kts 266°
2026-05-06 01:13 34.87329 -86.01604 30009 ft 412 kts 266°
2026-05-06 01:13 34.86596 -86.08530 30007 ft 411 kts 266°
2026-05-06 01:14 34.85493 -86.18877 30012 ft 410 kts 266°
2026-05-06 01:14 34.84755 -86.25757 30022 ft 409 kts 266°
2026-05-06 01:15 34.84013 -86.32622 30007 ft 409 kts 266°
2026-05-06 01:15 34.83270 -86.39491 30010 ft 410 kts 266°
2026-05-06 01:16 34.82520 -86.46366 30025 ft 410 kts 266°
2026-05-06 01:16 34.81767 -86.53239 30016 ft 410 kts 266°
2026-05-06 01:17 34.81008 -86.60122 30020 ft 409 kts 266°
2026-05-06 01:17 34.80248 -86.66975 30010 ft 409 kts 266°
2026-05-06 01:18 34.79485 -86.73830 30007 ft 409 kts 266°